Location: Stuttgart
(48.8069°N, 9.1544°E)
Time: 07:41:57
(UTC+02:00)

ISS - Visible Passes

Search period start: 09 May 2021 00:00
Search period end: 19 May 2021 00:00
Orbit: 418 x 421 km, 51.6° (Epoch: 08 May)

Date Brightness Start Highest point End Pass type
(mag) Time Alt. Az. Time Alt. Az. Time Alt. Az.
09 May -1.9 02:03:26 25° ENE 02:03:26 25° ENE 02:05:01 10° ENE visible
09 May -3.0 03:36:22 19° WNW 03:38:36 51° N 03:41:55 10° ENE visible
10 May -0.9 01:17:27 11° ENE 01:17:27 11° ENE 01:17:33 10° ENE visible
10 May -3.2 02:50:22 44° WNW 02:51:05 56° N 02:54:26 10° ENE visible
10 May -3.1 04:24:50 10° WNW 04:28:12 58° NNE 04:31:32 10° E visible
11 May -2.9 02:04:21 48° NE 02:04:21 48° NE 02:06:58 10° ENE visible
11 May -2.9 03:37:22 10° WNW 03:40:41 52° N 03:44:00 10° E visible
12 May -1.7 01:18:16 21° ENE 01:18:16 21° ENE 01:19:32 10° ENE visible
12 May -2.9 02:51:12 21° WNW 02:53:11 50° N 02:56:29 10° ENE visible
12 May -3.8 04:26:48 10° WNW 04:30:12 89° NNE 04:33:35 10° ESE visible
13 May -2.9 02:05:02 43° NW 02:05:39 51° N 02:08:58 10° ENE visible
13 May -3.5 03:39:21 10° WNW 03:42:44 70° NNE 03:46:06 10° E visible
14 May -2.9 01:18:38 49° NNE 01:18:38 49° NNE 01:21:30 10° ENE visible
14 May -3.2 02:51:54 10° WNW 02:55:15 58° N 02:58:36 10° E visible
14 May -3.5 04:28:47 10° WNW 04:32:03 47° SSW 04:35:19 10° SE visible
14 May -3.3 22:50:49 10° SW 22:53:57 36° SSE 22:55:39 21° E visible
15 May -3.4 00:27:18 10° W 00:30:39 65° NNW 00:34:01 10° ENE visible
15 May -3.0 02:04:25 10° WNW 02:07:45 52° N 02:11:04 10° E visible
15 May -3.9 03:41:18 10° WNW 03:44:40 68° SSW 03:48:01 10° ESE visible
15 May -2.7 22:03:50 10° SSW 22:06:38 25° SE 22:09:27 10° E visible
15 May -3.8 23:39:49 10° WSW 23:43:11 82° NNW 23:46:35 10° ENE visible
16 May -2.9 01:16:56 10° WNW 01:20:13 50° N 01:23:32 10° ENE visible
16 May -3.9 02:53:51 10° WNW 02:57:14 89° NNE 03:00:38 10° ESE visible
16 May -2.5 04:31:04 10° W 04:33:44 22° SW 04:36:24 10° SSE visible
16 May -3.9 22:52:23 10° WSW 22:55:45 76° SSE 22:59:07 10° ENE visible
17 May -2.9 00:29:24 10° W 00:32:42 51° N 00:36:01 10° ENE visible
17 May -3.5 02:06:24 10° WNW 02:09:47 70° NNE 02:13:09 10° E visible
17 May -3.1 03:43:23 10° W 03:46:26 32° SW 03:49:29 10° SSE visible
17 May -3.7 22:05:03 10° SW 22:08:20 53° SSE 22:11:39 10° ENE visible
17 May -3.1 23:41:52 10° W 23:45:11 56° N 23:48:32 10° ENE visible
18 May -3.2 01:18:56 10° WNW 01:22:17 58° NNE 01:22:56 47° ENE visible
18 May -1.0 02:55:49 10° WNW 02:55:49 10° WNW 02:55:49 10° WNW visible
18 May -3.4 22:54:20 10° W 22:57:41 65° NNW 23:01:04 10° ENE visible
